SCP
0 0 0 0 0 0 0 0 0 0 0 0 0 0 0 0 -0 -0 -0 -0 0 0 0 0 0 0 0 0 0 0 0 0 0 0 0 0 0 0 0 0 0 0 0
0 -0 -0 -0 -0 0 0 0 0 0 0 0 0 0 0 0 0 0 0 -0 -0 -0 -0 0 0 0 0 0 0 0 0 0 0 0 0 0 0 0 0 0 0 0 0
0 0 0 0 0 0 0 0 0 0 0 0 0 0 0 0 0 0 0 0 0 0 0 0 0 0 0 0 0 0 0 0 0 0 0 0 0 0 0 0 0 0 0
0 0 0 0 0 0 0 0 0 0 0 -0 -0 -0 -0 -0 -0 -0 -0 -0 0 0 0 0 0 0 0 0 0 0 0 0 0 0 0 0 0 0 0 0 0 0 0
0 0 0 0 0 0 0 0 0 0 0 0 0 0 0 0 0 0 0 0 -0 -0 0 0 0 0 0 0 0 0 0 0 0 0 0 0 0 0 0 0 0 0 0
0 0 0 0 0 0 0 0 0 0 0 0 0 0 0 0 0 0 0 0 0 0 0 0 0 0 0 0 0 0 0 0 0 0 0 0 0 0 0 0 0 0 0
0 0 0 0 0 0 0 0 0 0 0 0 0 0 0 0 0 0 0 0 0 0 0 0 0 0 0 0 0 0 0 0 0 0 0 0 0 0 0 0 0 0 0
0 0 0 0 0 0 0 0 0 0 0 0 0 0 0 0 0 0 0 0 0 0 0 0 0 0 0 0 0 0 0 0 0 0 0 0 0 0 0 0 0 0 0
0 0 0 0 0 0 0 0 0 0 0 0 0 0 0 0 0 0 0 0 0 0 0 0 0 0 0 0 0 0 0 0 0 0 0 0 0 0 0 0 0 0 0
0 0 0 0 0 0 0 0 0 0 0 0 0 0 0 0 0 0 0 0 0 0 0 0 0 0 0 0 0 0 0 0 0 0 0 0 0 0 0 0 0 0 0
0 0 0 0 0 0 0 0 0 0 0 0 0 0 0 0 0 0 0 0 0 0 0 0 0 0 0 0 0 0 0 0 0 0 0 0 0 0 0 0 0 0 0
0 0 0 0 0 0 0 0 0 0 0 0 0 0 0 0 0 0 0 0 0 0 0 0 0 0 0 0 0 0 0 0 0 0 0 0 0 0 0 0 0 0 0
0 0 0 0 0 0 0 0 0 0 0 0 0 0 0 0 0 0 0 0 0 0 0 0 0 0 0 0 0 0 0 0 0 0 0 0 0 0 0 0 0 0 0
0 0 0 0 0 0 0 0 0 0 0 0 0 0 0 0 0 0 0 0 0 0 0 0 0 0 0 0 0 0 0 0 0 0 0 0 0 0 0 0 0 0 0
0 0 0 0 0 0 0 0 0 0 0 0 0 0 0 0 0 0 0 0 0 0 0 0 0 0 0 0 0 0 0 0 0 0 0 0 0 0 0 0 0 0 0
0 0 0 0 0 0 0 0 0 -0 -0 -0 -0 -0 0 0 -0 0 0 0 0 0 0 0 0 0 0 0 0 0 0 0 0 0 0 0 0 0 0 0 0 0 0
0 0 0 0 0 0 0 0 -0 0 0 0 0 0 0 0 0 0 0 0 0 0 0 0 0 0 0 0 0 0 0 0 0 0 0 0 0 0 0 0 0 0 0
0 0 0 0 0 0 0 -0 0 -0 0 0 0 0 0 0 0 0 0 0 0 0 0 0 0 0 0 0 0 0 0 0 0 -0 0 0 0 0 0 0 0 0 0
0 0 0 0 0 0 0 0 0 0 0 0 0 0 0 0 0 0 0 0 0 0 0 0 0 0 0 0 0 0 0 0 0 -0 0 0 0 0 0 0 0 0 0
0 0 0 0 0 0 0 0 0 0 0 0 0 0 0 0 0 0 0 0 0 0 0 0 0 0 0 0 0 0 0 0 0 0 0 0 0 0 0 0 0 0 0
0 0 0 0 0 0 0 0 0 0 0 0 0 0 -0 0 0 0 0 0 0 0 0 0 0 0 0 0 0 0 0 0 0 0 0 0 0 0 0 0 0 0 0
0 0 0 0 0 0 0 0 0 0 0 0 0 0 0 0 0 0 0 0 0 0 0 0 0 0 0 0 0 0 0 0 0 0 0 0 0 0 0 0 0 0 0
0 0 0 0 0 0 0 0 0 0 0 0 0 0 0 0 0 0 0 0 0 0 0 0 0 0 0 0 0 0 0 0 0 0 0 0 0 0 0 0 0 0 0
0 0 0 0 0 0 0 0 0 0 0 0 0 0 0 0 0 0 0 0 0 0 0 0 0 0 0 0 0 0 0 0 0 0 0 0 0 0 0 0 0 0 0
0 0 0 0 0 0 0 0 0 0 0 0 0 0 0 0 0 0 0 0 0 0 0 0 0 0 0 0 -0 0 0 0 0 0 0 0 -0 -0 0 0 0 0 0
0 0 0 0 0 0 0 0 0 0 0 0 0 0 0 0 0 0 0 0 0 0 -0 0 0 0 -0 0 -0 -0 -0 -0 0 -0 0 0 -0 -0 -0 -0 -0 0 0
Wind_Speed_500mb
21 23 24 25 27 28 30 33 38 41 47 53 59 67 72 75 77 80 81 79 81 81 76 74 76 71 73 72 70 69 69 70 88 92 92 96 98 93 89 87 87 90 90
26 28 33 37 42 44 47 51 54 58 58 60 63 65 65 68 75 83 90 93 96 96 96 94 92 84 82 80 78 80 79 77 82 91 86 88 95 91 89 88 87 87 94
30 33 36 41 48 53 58 63 68 72 75 78 83 87 91 93 91 87 89 95 99 103 106 107 109 104 99 91 85 84 87 86 85 88 92 85 88 88 87 85 87 89 89
36 41 43 48 55 60 65 70 74 78 85 91 96 102 105 107 105 103 102 99 96 96 98 101 106 107 108 105 98 94 93 91 91 94 98 90 86 86 88 85 87 89 93
42 42 44 52 60 65 70 75 80 87 93 98 102 102 103 103 101 85 75 77 82 89 96 102 105 106 107 104 85 92 92 97 100 99 103 94 83 80 87 86 87 82 94
47 48 52 58 64 68 73 81 88 94 96 99 100 101 104 105 103 93 75 80 87 94 99 97 94 94 104 101 90 81 78 82 84 82 87 88 94 77 76 82 83 83 93
49 55 60 63 65 71 79 86 90 94 98 100 102 104 107 108 104 95 73 75 87 96 100 101 96 87 81 87 89 85 85 87 86 91 97 96 91 88 78 75 81 84 95
56 59 62 64 70 77 84 88 92 94 97 101 104 104 105 102 93 83 71 72 79 84 86 88 93 95 91 91 87 87 93 104 105 100 105 110 101 98 90 91 89 90 94
57 60 62 67 75 81 86 89 91 95 99 102 102 101 95 93 81 75 65 67 72 73 72 74 75 77 75 71 80 95 107 117 115 107 106 108 104 100 93 84 82 80 87
57 59 64 70 76 80 82 86 90 94 98 99 98 89 86 85 74 68 58 63 72 74 75 75 71 70 70 67 72 80 93 100 98 101 107 110 108 105 101 101 97 89 85
55 58 65 70 75 77 82 85 88 91 93 94 90 85 81 76 71 65 55 60 70 78 81 79 78 72 73 73 74 84 94 96 100 98 91 89 94 95 94 99 107 104 94
57 63 68 71 72 74 78 81 83 85 87 85 85 87 77 72 71 69 58 59 63 74 83 84 85 77 72 73 76 81 84 85 92 95 103 104 89 93 94 86 86 95 103
61 66 69 72 71 71 75 77 81 78 78 81 83 82 84 83 85 82 71 65 64 75 86 89 83 86 87 88 89 88 87 89 96 97 96 94 88 112 83 95 92 86 80
64 68 70 71 71 70 70 69 73 72 75 77 80 89 91 84 79 77 80 85 85 83 89 97 100 92 82 89 95 96 97 98 93 92 92 96 88 94 106 84 88 84 82
63 65 66 67 68 69 67 65 67 66 65 69 75 79 84 83 81 73 76 78 83 80 83 91 95 90 90 91 94 97 97 92 90 90 85 85 88 93 109 97 88 78 80
62 62 62 64 64 63 66 68 54 61 64 61 57 57 64 67 68 70 71 70 72 73 78 84 88 90 89 89 88 86 81 79 80 81 80 80 88 104 90 82 66 72 85
57 57 58 57 58 60 59 64 72 64 54 54 46 49 53 59 61 63 65 66 62 57 58 62 71 75 78 82 83 82 80 76 76 74 73 76 79 66 65 73 77 74 77
52 51 52 52 53 53 54 55 58 64 65 58 53 57 51 55 60 60 57 54 53 47 54 62 69 73 75 76 85 80 73 66 61 61 63 67 70 56 47 53 61 72 68
47 46 46 47 47 46 46 48 49 53 56 58 59 55 54 66 66 52 48 50 56 58 59 61 64 67 70 68 70 63 55 46 45 51 52 55 55 51 57 57 59 68 72
43 43 42 43 42 41 40 42 45 48 50 53 56 60 61 69 62 63 60 58 58 58 59 60 60 62 64 63 59 62 55 39 36 44 53 58 58 55 52 55 51 62 69
42 39 39 37 37 36 37 37 40 43 46 48 50 51 47 50 57 60 63 62 59 58 58 58 57 58 60 60 56 49 45 42 41 43 44 48 53 55 49 49 53 56 62
39 36 35 34 34 33 32 33 35 38 40 43 45 45 46 48 52 55 57 59 58 56 55 56 57 57 57 54 51 46 41 34 28 25 24 25 24 24 27 33 38 43 49
36 34 33 30 31 31 29 30 32 33 35 37 41 44 46 48 49 51 53 54 55 57 56 57 60 60 59 54 46 42 40 38 35 29 26 22 16 10 9 15 22 30 36
35 36 35 31 30 31 31 31 30 30 33 36 38 41 43 44 46 47 48 49 51 52 54 55 57 58 60 62 57 45 40 35 30 27 23 18 12 8 4 8 14 20 25
36 36 35 34 33 33 32 33 33 33 34 36 38 40 41 42 43 43 45 46 47 49 50 51 53 55 58 59 58 57 46 39 35 30 25 19 17 16 15 15 17 19 22
35 35 34 34 35 36 36 38 36 36 38 38 38 39 41 42 42 42 42 43 45 45 44 44 46 50 54 57 55 53 54 48 42 36 31 27 27 28 26 26 23 24 23
Wind_Direction_500mb
352 344 337 334 328 325 322 319 317 319 316 317 319 318 319 318 317 314 311 309 306 304 301 299 295 295 292 290 291 290 287 283 278 281 282 284 283 280 277 272 266 260 256
338 333 333 332 330 328 326 324 323 322 320 317 314 310 306 302 302 302 301 302 301 300 299 296 293 291 287 286 284 284 284 284 285 286 286 284 283 282 279 276 271 264 257
320 316 313 316 318 318 318 318 318 317 317 315 312 310 308 306 302 296 291 290 289 290 290 291 290 290 286 282 281 280 279 281 281 283 285 283 282 283 281 277 274 269 262
308 305 302 304 308 309 310 310 311 311 311 310 309 308 307 307 306 306 306 302 297 290 286 283 283 283 284 286 283 278 276 276 278 279 281 283 282 282 281 279 276 272 269
301 305 297 297 300 303 305 307 308 308 307 307 306 306 305 304 303 302 297 293 291 290 289 288 285 283 282 284 282 281 280 279 276 275 275 278 275 275 277 282 279 279 278
294 297 296 297 299 301 303 304 305 306 307 306 306 306 305 304 303 299 293 285 279 275 276 278 279 280 282 281 277 275 272 272 272 272 273 272 271 269 271 275 277 276 275
286 294 296 297 299 301 303 305 308 309 310 310 310 309 307 305 304 303 298 287 281 277 273 275 277 276 279 278 277 274 270 265 262 265 267 266 268 268 268 266 268 269 270
288 293 295 298 302 306 309 311 312 311 312 312 311 310 308 309 309 307 302 294 288 286 285 283 279 277 276 274 278 278 276 275 274 271 264 261 261 260 261 263 265 268 271
291 295 299 304 308 311 313 313 313 314 314 313 312 312 312 311 312 309 303 296 293 292 291 291 292 292 290 284 279 276 273 272 272 269 266 265 263 261 259 258 255 252 255
294 298 304 309 311 314 315 315 316 315 314 314 313 316 315 312 313 310 304 300 298 300 300 297 296 292 291 287 283 282 281 280 280 280 277 273 267 262 255 250 249 247 248
295 303 309 312 314 316 316 316 316 315 315 315 318 317 314 315 318 319 305 300 298 300 300 298 294 294 291 287 282 278 276 279 278 277 281 276 271 266 259 252 248 241 240
303 310 313 314 316 315 314 315 316 317 317 319 319 315 317 320 323 323 306 300 299 295 294 295 298 296 293 290 286 282 282 281 277 272 269 272 272 265 258 251 249 249 243
309 313 315 315 315 316 317 319 319 322 322 321 318 318 324 327 326 325 312 305 301 299 299 300 296 295 294 289 283 280 279 279 276 275 275 271 268 264 268 256 251 250 249
311 314 315 315 317 318 320 324 323 325 324 320 321 323 320 316 311 309 315 318 315 307 304 305 307 304 290 289 286 282 276 273 268 267 271 271 268 263 262 258 244 242 243
311 313 315 316 318 320 322 328 326 328 322 315 309 308 310 309 311 313 311 310 309 306 305 302 300 295 292 292 290 287 282 276 270 265 265 268 268 261 255 256 236 243 243
311 313 313 314 318 322 323 325 330 330 326 316 308 306 308 306 312 313 311 311 310 309 304 298 297 298 295 292 288 283 276 267 259 262 265 265 265 268 250 250 244 245 229
310 308 309 314 320 323 326 329 332 339 333 337 335 323 319 318 319 320 320 315 312 315 313 318 320 321 314 305 296 286 279 271 268 266 267 270 269 262 246 242 247 252 252
304 304 308 315 320 323 329 331 336 338 340 348 351 348 341 335 331 329 325 322 323 331 334 332 332 333 329 327 318 303 291 279 271 271 271 275 277 285 259 265 259 235 231
301 304 309 315 320 325 326 331 339 339 343 347 351 355 356 357 345 346 350 348 345 343 342 341 343 341 339 338 334 327 314 299 278 274 277 277 279 277 281 275 262 249 245
300 304 310 314 320 322 325 332 338 340 344 352 355 352 359 348 352 1 3 359 355 352 349 348 351 350 346 345 347 348 339 320 300 286 280 279 278 281 278 271 264 243 226
297 301 307 314 319 320 323 331 334 336 343 350 355 356 349 348 359 5 5 6 2 360 356 354 356 358 355 352 353 357 356 350 333 318 305 295 288 281 280 272 259 242 230
292 297 302 310 316 318 320 326 329 334 343 350 354 359 360 1 4 6 8 10 11 11 8 6 5 6 2 358 357 357 359 357 353 345 337 324 311 296 280 260 239 226 219
287 291 295 302 310 313 316 321 326 334 341 348 352 355 359 2 4 6 6 8 11 12 13 15 16 14 13 8 5 4 5 4 0 358 356 352 344 322 275 236 220 209 205
284 287 288 294 301 306 311 316 322 329 335 341 345 350 353 356 0 3 5 6 7 10 12 14 17 19 16 19 15 13 14 12 12 14 13 14 26 41 86 158 172 180 180
279 282 284 288 293 297 303 308 314 319 326 330 335 340 344 348 352 357 1 4 7 7 10 14 17 18 23 19 22 21 23 26 29 31 37 46 65 77 95 114 129 142 155
279 281 285 287 290 294 298 301 306 311 316 320 326 332 337 341 345 350 355 360 3 6 8 10 13 17 22 24 22 28 28 34 39 43 49 62 75 83 90 97 106 118 130
Wind_Speed_850mb
21 23 24 25 27 28 30 33 38 41 47 53 59 67 72 75 77 80 81 79 81 81 76 74 76 71 73 72 70 69 69 70 88 92 92 96 98 93 89 87 87 90 90
26 28 33 37 42 44 47 51 54 58 58 60 63 65 65 68 75 83 90 93 96 96 96 94 92 84 82 80 78 80 79 77 82 91 86 88 95 91 89 88 87 87 94
30 33 36 41 48 53 58 63 68 72 75 78 83 87 91 93 91 87 89 95 99 103 106 107 109 104 99 91 85 84 87 86 85 88 92 85 88 88 87 85 87 89 89
36 41 43 48 55 60 65 70 74 78 85 91 96 102 105 107 105 103 102 99 96 96 98 101 106 107 108 105 98 94 93 91 91 94 98 90 86 86 88 85 87 89 93
42 42 44 52 60 65 70 75 80 87 93 98 102 102 103 103 101 85 75 77 82 89 96 102 105 106 107 104 85 92 92 97 100 99 103 94 83 80 87 86 87 82 94
47 48 52 58 64 68 73 81 88 94 96 99 100 101 104 105 103 93 75 80 87 94 99 97 94 94 104 101 90 81 78 82 84 82 87 88 94 77 76 82 83 83 93
49 55 60 63 65 71 79 86 90 94 98 100 102 104 107 108 104 95 73 75 87 96 100 101 96 87 81 87 89 85 85 87 86 91 97 96 91 88 78 75 81 84 95
56 59 62 64 70 77 84 88 92 94 97 101 104 104 105 102 93 83 71 72 79 84 86 88 93 95 91 91 87 87 93 104 105 100 105 110 101 98 90 91 89 90 94
57 60 62 67 75 81 86 89 91 95 99 102 102 101 95 93 81 75 65 67 72 73 72 74 75 77 75 71 80 95 107 117 115 107 106 108 104 100 93 84 82 80 87
57 59 64 70 76 80 82 86 90 94 98 99 98 89 86 85 74 68 58 63 72 74 75 75 71 70 70 67 72 80 93 100 98 101 107 110 108 105 101 101 97 89 85
55 58 65 70 75 77 82 85 88 91 93 94 90 85 81 76 71 65 55 60 70 78 81 79 78 72 73 73 74 84 94 96 100 98 91 89 94 95 94 99 107 104 94
57 63 68 71 72 74 78 81 83 85 87 85 85 87 77 72 71 69 58 59 63 74 83 84 85 77 72 73 76 81 84 85 92 95 103 104 89 93 94 86 86 95 103
61 66 69 72 71 71 75 77 81 78 78 81 83 82 84 83 85 82 71 65 64 75 86 89 83 86 87 88 89 88 87 89 96 97 96 94 88 112 83 95 92 86 80
64 68 70 71 71 70 70 69 73 72 75 77 80 89 91 84 79 77 80 85 85 83 89 97 100 92 82 89 95 96 97 98 93 92 92 96 88 94 106 84 88 84 82
63 65 66 67 68 69 67 65 67 66 65 69 75 79 84 83 81 73 76 78 83 80 83 91 95 90 90 91 94 97 97 92 90 90 85 85 88 93 109 97 88 78 80
62 62 62 64 64 63 66 68 54 61 64 61 57 57 64 67 68 70 71 70 72 73 78 84 88 90 89 89 88 86 81 79 80 81 80 80 88 104 90 82 66 72 85
57 57 58 57 58 60 59 64 72 64 54 54 46 49 53 59 61 63 65 66 62 57 58 62 71 75 78 82 83 82 80 76 76 74 73 76 79 66 65 73 77 74 77
52 51 52 52 53 53 54 55 58 64 65 58 53 57 51 55 60 60 57 54 53 47 54 62 69 73 75 76 85 80 73 66 61 61 63 67 70 56 47 53 61 72 68
47 46 46 47 47 46 46 48 49 53 56 58 59 55 54 66 66 52 48 50 56 58 59 61 64 67 70 68 70 63 55 46 45 51 52 55 55 51 57 57 59 68 72
43 43 42 43 42 41 40 42 45 48 50 53 56 60 61 69 62 63 60 58 58 58 59 60 60 62 64 63 59 62 55 39 36 44 53 58 58 55 52 55 51 62 69
42 39 39 37 37 36 37 37 40 43 46 48 50 51 47 50 57 60 63 62 59 58 58 58 57 58 60 60 56 49 45 42 41 43 44 48 53 55 49 49 53 56 62
39 36 35 34 34 33 32 33 35 38 40 43 45 45 46 48 52 55 57 59 58 56 55 56 57 57 57 54 51 46 41 34 28 25 24 25 24 24 27 33 38 43 49
36 34 33 30 31 31 29 30 32 33 35 37 41 44 46 48 49 51 53 54 55 57 56 57 60 60 59 54 46 42 40 38 35 29 26 22 16 10 9 15 22 30 36
35 36 35 31 30 31 31 31 30 30 33 36 38 41 43 44 46 47 48 49 51 52 54 55 57 58 60 62 57 45 40 35 30 27 23 18 12 8 4 8 14 20 25
36 36 35 34 33 33 32 33 33 33 34 36 38 40 41 42 43 43 45 46 47 49 50 51 53 55 58 59 58 57 46 39 35 30 25 19 17 16 15 15 17 19 22
35 35 34 34 35 36 36 38 36 36 38 38 38 39 41 42 42 42 42 43 45 45 44 44 46 50 54 57 55 53 54 48 42 36 31 27 27 28 26 26 23 24 23
Wind_Direction_850mb
352 344 337 334 328 325 322 319 317 319 316 317 319 318 319 318 317 314 311 309 306 304 301 299 295 295 292 290 291 290 287 283 278 281 282 284 283 280 277 272 266 260 256
338 333 333 332 330 328 326 324 323 322 320 317 314 310 306 302 302 302 301 302 301 300 299 296 293 291 287 286 284 284 284 284 285 286 286 284 283 282 279 276 271 264 257
320 316 313 316 318 318 318 318 318 317 317 315 312 310 308 306 302 296 291 290 289 290 290 291 290 290 286 282 281 280 279 281 281 283 285 283 282 283 281 277 274 269 262
308 305 302 304 308 309 310 310 311 311 311 310 309 308 307 307 306 306 306 302 297 290 286 283 283 283 284 286 283 278 276 276 278 279 281 283 282 282 281 279 276 272 269
301 305 297 297 300 303 305 307 308 308 307 307 306 306 305 304 303 302 297 293 291 290 289 288 285 283 282 284 282 281 280 279 276 275 275 278 275 275 277 282 279 279 278
294 297 296 297 299 301 303 304 305 306 307 306 306 306 305 304 303 299 293 285 279 275 276 278 279 280 282 281 277 275 272 272 272 272 273 272 271 269 271 275 277 276 275
286 294 296 297 299 301 303 305 308 309 310 310 310 309 307 305 304 303 298 287 281 277 273 275 277 276 279 278 277 274 270 265 262 265 267 266 268 268 268 266 268 269 270
288 293 295 298 302 306 309 311 312 311 312 312 311 310 308 309 309 307 302 294 288 286 285 283 279 277 276 274 278 278 276 275 274 271 264 261 261 260 261 263 265 268 271
291 295 299 304 308 311 313 313 313 314 314 313 312 312 312 311 312 309 303 296 293 292 291 291 292 292 290 284 279 276 273 272 272 269 266 265 263 261 259 258 255 252 255
294 298 304 309 311 314 315 315 316 315 314 314 313 316 315 312 313 310 304 300 298 300 300 297 296 292 291 287 283 282 281 280 280 280 277 273 267 262 255 250 249 247 248
295 303 309 312 314 316 316 316 316 315 315 315 318 317 314 315 318 319 305 300 298 300 300 298 294 294 291 287 282 278 276 279 278 277 281 276 271 266 259 252 248 241 240
303 310 313 314 316 315 314 315 316 317 317 319 319 315 317 320 323 323 306 300 299 295 294 295 298 296 293 290 286 282 282 281 277 272 269 272 272 265 258 251 249 249 243
309 313 315 315 315 316 317 319 319 322 322 321 318 318 324 327 326 325 312 305 301 299 299 300 296 295 294 289 283 280 279 279 276 275 275 271 268 264 268 256 251 250 249
311 314 315 315 317 318 320 324 323 325 324 320 321 323 320 316 311 309 315 318 315 307 304 305 307 304 290 289 286 282 276 273 268 267 271 271 268 263 262 258 244 242 243
311 313 315 316 318 320 322 328 326 328 322 315 309 308 310 309 311 313 311 310 309 306 305 302 300 295 292 292 290 287 282 276 270 265 265 268 268 261 255 256 236 243 243
311 313 313 314 318 322 323 325 330 330 326 316 308 306 308 306 312 313 311 311 310 309 304 298 297 298 295 292 288 283 276 267 259 262 265 265 265 268 250 250 244 245 229
310 308 309 314 320 323 326 329 332 339 333 337 335 323 319 318 319 320 320 315 312 315 313 318 320 321 314 305 296 286 279 271 268 266 267 270 269 262 246 242 247 252 252
304 304 308 315 320 323 329 331 336 338 340 348 351 348 341 335 331 329 325 322 323 331 334 332 332 333 329 327 318 303 291 279 271 271 271 275 277 285 259 265 259 235 231
301 304 309 315 320 325 326 331 339 339 343 347 351 355 356 357 345 346 350 348 345 343 342 341 343 341 339 338 334 327 314 299 278 274 277 277 279 277 281 275 262 249 245
300 304 310 314 320 322 325 332 338 340 344 352 355 352 359 348 352 1 3 359 355 352 349 348 351 350 346 345 347 348 339 320 300 286 280 279 278 281 278 271 264 243 226
297 301 307 314 319 320 323 331 334 336 343 350 355 356 349 348 359 5 5 6 2 360 356 354 356 358 355 352 353 357 356 350 333 318 305 295 288 281 280 272 259 242 230
292 297 302 310 316 318 320 326 329 334 343 350 354 359 360 1 4 6 8 10 11 11 8 6 5 6 2 358 357 357 359 357 353 345 337 324 311 296 280 260 239 226 219
287 291 295 302 310 313 316 321 326 334 341 348 352 355 359 2 4 6 6 8 11 12 13 15 16 14 13 8 5 4 5 4 0 358 356 352 344 322 275 236 220 209 205
284 287 288 294 301 306 311 316 322 329 335 341 345 350 353 356 0 3 5 6 7 10 12 14 17 19 16 19 15 13 14 12 12 14 13 14 26 41 86 158 172 180 180
279 282 284 288 293 297 303 308 314 319 326 330 335 340 344 348 352 357 1 4 7 7 10 14 17 18 23 19 22 21 23 26 29 31 37 46 65 77 95 114 129 142 155
279 281 285 287 290 294 298 301 306 311 316 320 326 332 337 341 345 350 355 360 3 6 8 10 13 17 22 24 22 28 28 34 39 43 49 62 75 83 90 97 106 118 130